Theta_e
341 339 338 338 336 335 330 326 324 321 319 318 321 323 325 325 322 327 331 328 328 325 317 316 317 318 318 319 320 320 320 321
336 337 337 336 335 332 329 327 325 320 319 319 321 322 322 323 322 323 324 326 327 324 315 317 318 318 319 319 318 318 317 319
325 329 334 332 331 329 328 326 324 322 322 321 321 320 320 320 322 323 323 325 324 317 316 318 318 318 317 317 316 315 314 315
330 330 330 328 327 326 326 326 325 323 321 319 321 322 321 319 319 319 319 320 318 316 319 319 319 318 317 316 313 312 311 310
330 329 324 326 327 326 326 325 324 321 318 320 324 325 323 319 319 319 319 318 318 319 319 319 319 319 318 312 310 309 309 309
326 323 322 322 320 315 313 315 318 316 320 320 324 324 321 321 322 319 319 319 319 319 320 319 318 316 310 309 308 308 307 310
321 319 318 316 316 317 320 320 314 323 323 323 325 323 321 323 324 322 322 321 321 320 320 317 313 310 309 308 307 307 307 311
322 320 319 317 319 322 322 321 321 322 324 323 324 326 325 326 324 324 323 322 321 320 319 315 311 310 308 307 306 307 306 306
318 317 316 317 317 318 318 318 318 318 320 322 326 326 326 326 325 323 322 322 322 319 315 311 310 309 308 307 307 306 306 305
318 316 315 316 315 316 316 317 316 317 315 320 319 324 327 327 324 323 324 321 319 316 311 311 310 310 310 308 307 306 306 305
318 317 316 316 316 315 314 313 318 320 320 319 322 325 328 326 326 324 321 320 316 313 312 311 311 310 310 309 309 308 307 305
317 317 317 316 315 313 316 321 322 321 321 323 324 328 328 326 325 322 320 317 314 312 312 312 312 312 312 311 309 309 307 306
318 317 317 316 320 322 323 323 324 321 318 323 325 328 328 326 324 322 319 316 314 313 312 312 312 312 311 312 312 311 308 306
321 321 320 322 323 325 324 325 324 322 324 326 327 327 327 326 324 322 319 316 314 313 313 314 314 312 312 311 310 310 308 307
325 325 324 326 325 327 324 325 325 326 326 327 328 327 326 325 324 321 318 316 313 313 313 314 314 312 311 310 309 308 306 306
324 324 327 329 328 326 324 325 327 328 327 327 327 325 323 324 323 320 317 315 314 313 314 314 313 312 311 310 308 306 304 303
324 325 328 329 329 328 323 326 327 327 328 327 325 323 323 324 321 319 316 316 314 314 314 313 312 311 308 306 305 305 305 304
326 328 330 330 330 328 327 328 327 328 328 326 324 321 321 321 320 318 316 315 314 313 312 311 310 308 306 305 304 303 302 302
329 329 329 330 330 331 329 329 327 328 327 325 322 320 319 320 318 317 316 315 314 312 311 310 308 307 305 304 303 301 301 301
329 329 329 329 332 332 329 331 329 329 328 325 322 321 320 319 317 316 315 315 312 311 309 308 306 304 303 303 302 301 301 301
Wind_Speed
38 35 35 32 35 30 31 30 30 29 29 29 29 27 27 25 24 25 25 23 22 20 19 17 15 13 12 14 14 15 15 18
23 29 35 35 32 31 31 31 30 30 28 28 28 27 27 25 24 24 25 22 20 18 17 14 13 11 11 10 9 11 15 11
15 11 29 33 32 30 29 28 27 26 25 26 27 28 27 24 25 24 23 20 18 17 16 12 11 9 9 10 11 10 14 10
33 30 34 34 31 29 29 26 24 25 27 24 24 25 23 24 22 21 20 19 18 16 14 10 9 7 7 8 8 9 9 10
33 35 38 38 36 35 29 28 21 23 24 15 18 21 17 22 21 20 19 19 19 16 12 5 4 8 2 6 5 7 9 5
34 35 39 39 38 35 30 22 25 24 21 21 17 20 16 19 18 20 19 16 16 10 9 8 6 6 5 6 5 6 5 3
28 30 27 35 30 29 31 27 28 20 20 22 20 19 16 17 17 18 16 16 14 11 8 8 8 7 6 5 4 5 6 4
30 27 28 34 28 31 26 27 24 19 19 19 15 18 17 17 19 16 16 15 12 12 12 8 9 5 5 4 4 5 4 5
29 30 30 31 23 20 24 21 20 19 14 14 13 18 20 19 17 15 13 15 16 14 12 10 8 8 5 5 2 4 3 3
28 30 27 24 23 21 22 17 15 14 11 15 16 18 20 19 18 17 15 18 17 12 12 9 9 7 6 3 2 2 2 1
35 35 35 34 34 30 26 24 12 17 23 22 22 18 17 19 19 17 17 14 14 13 12 11 9 6 5 6 5 4 4 5
33 33 32 34 36 37 27 22 23 22 21 18 17 14 17 17 17 18 16 15 15 13 13 9 8 6 2 1 6 9 9 9
33 31 35 35 28 28 24 24 22 22 20 19 20 17 18 16 17 16 18 17 16 14 13 10 6 3 2 9 11 18 14 12
30 30 33 30 27 25 23 20 22 20 21 21 19 19 19 19 17 18 19 18 17 17 14 12 6 7 0 6 3 5 11 14
32 32 31 28 28 24 21 19 19 20 20 19 21 22 23 23 18 20 20 18 18 17 15 10 8 11 9 3 2 1 3 5
31 28 27 26 28 25 24 21 19 17 18 19 21 18 18 19 16 18 21 17 17 18 14 11 9 5 8 8 10 6 2 3
31 29 26 26 26 21 26 25 24 21 24 23 24 23 25 28 23 23 23 20 18 20 18 15 10 8 8 8 9 6 10 10
35 29 30 32 33 30 25 25 27 23 25 27 25 23 27 26 23 24 21 22 17 20 17 14 11 10 7 6 6 5 7 9
32 32 30 30 38 31 32 27 27 27 28 25 24 25 26 30 25 25 24 22 19 22 16 14 11 10 8 6 8 8 10 12
37 34 34 32 36 34 33 28 28 25 28 28 24 22 25 26 28 24 25 23 22 19 13 11 7 6 8 7 9 10 12 13
Wind_Direction
153 155 152 144 145 148 146 146 146 143 146 147 143 137 133 130 128 133 139 137 135 133 130 128 119 108 88 81 68 58 57 91
94 134 135 138 139 142 142 143 144 146 148 145 140 135 129 129 127 129 133 136 138 134 133 129 119 112 88 79 51 46 61 74
153 128 120 131 136 138 139 141 143 142 140 138 134 126 122 131 133 135 136 141 138 139 131 127 118 106 84 60 53 53 60 72
157 149 141 132 132 138 135 132 133 144 139 134 135 122 131 134 132 135 137 142 140 136 120 122 116 110 64 55 57 56 55 78
148 149 143 135 135 132 127 120 129 139 130 136 134 127 141 139 137 131 138 140 134 130 128 120 125 109 123 100 92 67 56 66
146 141 141 143 139 132 129 134 146 141 150 158 127 138 138 138 135 142 141 137 134 133 147 164 146 115 95 77 79 79 80 68
131 134 130 138 133 140 153 153 151 171 169 153 154 156 152 149 153 151 148 150 160 158 169 146 130 125 120 106 86 73 81 39
134 133 136 149 148 147 142 149 170 173 164 152 150 159 171 170 158 167 158 160 165 167 163 174 151 151 142 131 129 96 99 77
118 126 126 127 129 134 146 163 166 175 147 162 181 184 185 172 167 163 171 169 175 172 167 165 162 163 171 124 120 99 96 85
136 134 136 145 152 149 155 157 160 145 186 190 194 198 180 176 177 174 182 175 173 174 171 167 186 177 143 141 141 249 162 47
144 149 158 171 171 169 162 167 181 190 202 203 201 196 184 173 181 186 180 174 176 178 180 183 182 176 192 198 201 216 248 220
150 160 166 170 169 165 192 207 207 202 202 205 207 192 187 190 182 184 173 180 180 184 183 187 184 179 260 211 222 217 218 227
164 167 169 168 187 207 207 200 202 206 214 209 205 193 192 185 184 189 178 188 184 188 179 186 167 189 316 271 245 221 203 215
174 183 187 197 200 197 196 194 204 208 206 204 200 194 192 192 190 192 189 190 186 184 188 192 178 177 66 316 293 166 215 224
189 191 188 192 198 197 194 193 196 199 208 199 199 213 196 190 197 187 194 195 186 189 202 198 198 186 182 201 311 292 354 227
193 202 190 196 205 197 193 190 178 195 202 198 199 207 201 190 203 195 197 191 189 193 198 204 207 133 171 207 228 235 222 328
204 207 197 198 210 205 194 192 194 200 200 196 192 199 196 198 194 202 197 195 200 191 203 191 187 200 227 243 252 242 235 235
203 211 198 199 200 201 206 197 202 189 184 188 198 206 203 203 197 203 200 197 202 191 185 188 204 234 228 241 279 275 302 306
200 204 219 207 203 202 203 217 202 195 182 183 195 204 205 204 202 201 198 199 201 189 186 202 225 233 226 240 252 279 285 280
200 203 213 218 190 197 201 209 209 205 193 195 199 198 208 210 203 204 197 195 189 185 194 213 211 213 240 261 267 273 282 289